Flag for Laos Weather past 2 weeks in Vientiane, Laos

Now
81 °F

Rain. Broken clouds.


Feels Like: 87 °F
Forecast: 72 / 82 °F
Wind: 2 mph from East

Location: Vientiane Airport

Current Time: Sep 23, 2014 at 9:48:53 AM

Latest Report: Sep 23, 2014 at 9:30 AM


Visibility: 3 mi

Pressure: 29.77 "Hg

Humidity: 89%

Dew point: 77 °F

Location of VientianeLocation

Historic Weather in Vientiane — Graph

°F

Vientiane temperature yesterday

Maximum temperature yesterday: 81 °F (at 9:00 AM)
Minimum temperature yesterday: 79 °F (at 6:00 AM)
Average temperature yesterday: 80 °F

Past Weeks' High & Low Weather Summary

 TemperatureHumidityPressure
High95 °F (Sep 10, 3:00 PM)94% (Sep 9, 6:00 AM)29.86 "Hg (Sep 9, 6:00 AM)
Low77 °F (Sep 12, 7:00 AM)50% (Sep 10, 3:00 PM)29.39 "Hg (Sep 16, 4:00 PM)
Average85 °F77%29.69 "Hg
* Reported Sep 8 8:00 AM — Sep 23 8:00 AM, Vientiane, Weather by CustomWeather, © 2014

Note: Actual official high and low records may vary slightly from our data, if they occured in-between our weather recording intervals... More about our weather records

Advertising

Vientiane weather history for previous 24 hours

 ConditionsComfort  
Time TempWeatherWind HumidityBarometerVisibility
8:00 AM
Sep 23
79 °FDrizzle. Partly sunny.2 mph94%29.77 "Hg2 mi
7:30 AM79 °FDrizzle. Partly sunny.2 mph94%29.77 "Hg2 mi
7:00 AM79 °FRain. Broken clouds.2 mph94%29.77 "Hg2 mi
6:30 AM79 °FFog.2 mph94%29.74 "Hg2 mi
6:00 AM79 °FFog.2 mph94%29.74 "Hg2 mi
11:00 PM
Sep 22
79 °FFog.2 mph94%29.77 "Hg2 mi
10:30 PM79 °FFog.2 mph94%29.77 "Hg2 mi
10:00 PM79 °FFog.2 mph94%29.77 "Hg2 mi
9:30 PM79 °FFog.2 mph89%29.77 "Hg2 mi
9:00 PM79 °FFog.2 mph89%29.77 "Hg2 mi
8:30 PM79 °FFog.2 mph89%29.77 "Hg2 mi
8:00 PM79 °FFog.2 mph89%29.77 "Hg2 mi
7:30 PM79 °FFog.2 mph89%29.74 "Hg2 mi
7:00 PM79 °FFog.2 mph89%29.74 "Hg2 mi
6:30 PM81 °FPartly cloudy.2 mph89%29.74 "Hg3 mi
6:00 PM81 °FBroken clouds.2 mph89%29.74 "Hg3 mi
5:30 PM81 °FPartly sunny.2 mph89%29.74 "Hg3 mi
4:00 PM81 °FDrizzle. Partly sunny.2 mph89%29.74 "Hg3 mi
3:30 PM81 °FDrizzle. Partly sunny.2 mph89%29.74 "Hg3 mi
3:00 PM81 °FDrizzle. Partly sunny.2 mph89%29.74 "Hg3 mi
2:30 PM81 °FRain. Partly sunny.2 mph89%29.74 "Hg2 mi
2:00 PM81 °FRain. Partly sunny.2 mph89%29.74 "Hg2 mi
1:30 PM81 °FDrizzle. Partly sunny.2 mph89%29.77 "Hg3 mi
1:00 PM81 °FDrizzle. Partly sunny.2 mph89%29.77 "Hg3 mi
12:30 PM81 °FDrizzle. Partly sunny.2 mph89%29.80 "Hg2 mi
12:00 PM81 °FDrizzle. Partly sunny.2 mph89%29.80 "Hg2 mi
11:30 AM81 °FRain. Partly sunny.2 mph89%29.80 "Hg2 mi
11:00 AM81 °FRain. Partly sunny.2 mph89%29.80 "Hg2 mi
10:30 AM79 °FRain. Partly sunny.2 mph94%29.83 "Hg2 mi
10:00 AM79 °FRain. Partly sunny.2 mph94%29.83 "Hg2 mi
9:30 AM81 °FDrizzle. Partly sunny.2 mph89%29.80 "Hg2 mi
9:00 AM81 °FDrizzle. Partly sunny.2 mph89%29.80 "Hg2 mi
Weather by CustomWeather, © 2014

See weather overviewHow to use our weather pages